This is the latest recevied weather packets stored in our database for station/object IZ1GCT. If no packets are shown the sender has not sent any weather packets the latest 10 day(s).
| Time | Temp. | Humidity | Pressure | Rain* | Wind** | Luminosity | Snow |
|---|---|---|---|---|---|---|---|
| 1777986348 | 14.44° C | 71% | 1015.9 hPa | 0 mm | - | - | - |
| 1777986049 | 14.44° C | 72% | 1015.9 hPa | 0.25 mm | - | - | - |
| 1777985748 | 13.89° C | 73% | 1015.9 hPa | 0.25 mm | - | - | - |
| 1777985448 | 13.89° C | 73% | 1015.9 hPa | 0.25 mm | - | - | - |
| 1777985149 | 13.89° C | 73% | 1016 hPa | 0.25 mm | - | - | - |
| 1777984848 | 13.89° C | 73% | 1016 hPa | 0.25 mm | - | - | - |
| 1777984548 | 13.33° C | 72% | 1016 hPa | 0.25 mm | - | - | - |
| 1777984247 | 13.89° C | 71% | 1016 hPa | 0.25 mm | - | - | - |
| 1777983949 | 13.89° C | 72% | 1016 hPa | 0.25 mm | - | - | - |
| 1777983648 | 13.89° C | 72% | 1016.1 hPa | 0.25 mm | - | - | - |
| 1777983348 | 13.89° C | 73% | 1016.1 hPa | 0.25 mm | - | - | - |
| 1777983048 | 13.89° C | 73% | 1016.1 hPa | 0.25 mm | - | - | - |
| 1777982749 | 13.89° C | 73% | 1016 hPa | 0.25 mm | - | - | - |
| 1777982448 | 13.89° C | 73% | 1016.1 hPa | 0 mm | - | - | - |
| 1777982149 | 13.89° C | 72% | 1016.1 hPa | 0 mm | - | - | - |
| 1777981849 | 13.33° C | 72% | 1016.2 hPa | 0 mm | - | - | - |
| 1777981548 | 13.33° C | 72% | 1016.2 hPa | 0 mm | - | - | - |
| 1777981247 | 13.33° C | 73% | 1016.3 hPa | 0 mm | - | - | - |
| 1777980949 | 12.78° C | 72% | 1016.2 hPa | 0 mm | - | - | - |
| 1777980648 | 13.33° C | 72% | 1016.4 hPa | 0 mm | - | - | - |
| 1777980348 | 13.33° C | 71% | 1016.3 hPa | 0 mm | - | - | - |
| 1777980047 | 13.33° C | 71% | 1016.4 hPa | 0 mm | - | - | - |
| 1777979749 | 13.33° C | 71% | 1016.5 hPa | 0 mm | - | - | - |
| 1777979448 | 13.33° C | 71% | 1016.5 hPa | 0 mm | - | - | - |
| 1777979147 | 13.89° C | 71% | 1016.5 hPa | 0 mm | - | - | - |
* Rain latest hour (hover to see other rain measurements)
** Current wind speed in m/s (hover to see current wind gust speed)